CW0879 Weather Reports


Display with metric or nautical units.
time (UTC)temp
F
wind
direction
speed
MPH
gust
MPH
rain 1hr
in
rain 24hr
in
rain mn
in
humidity
%
barometer
mb
20260506221522 76 263 5.0 7.0 0.00 0.00 0.00 67 1019.0
20260506221008 76 273 5.0 7.0 0.00 0.00 0.00 66 1019.1
20260506220511 76 273 4.0 7.0 0.00 0.00 0.00 68 1019.2
20260506220022 75 279 5.0 7.0 0.00 0.00 0.00 69 1019.4
20260506215510 76 281 6.0 7.0 0.00 0.00 0.00 68 1019.4
20260506215010 76 283 4.0 7.0 0.00 0.00 0.00 68 1019.5
20260506214528 76 281 4.0 6.0 0.00 0.00 0.00 68 1019.4
20260506214007 77 282 4.0 6.0 0.00 0.00 0.00 67 1019.5
20260506213510 77 280 3.0 6.0 0.00 0.00 0.00 69 1019.6
20260506213027 75 284 3.0 4.0 0.00 0.00 0.00 69 1019.6
20260506212510 73 284 3.0 6.0 0.00 0.00 0.00 71 1019.7
20260506212011 72 282 3.0 6.0 0.00 0.00 0.00 71 1019.7
20260506211527 72 282 3.0 6.0 0.00 0.00 0.00 72 1019.7
20260506211008 73 281 3.0 6.0 0.00 0.00 0.00 68 1019.6
20260506210508 73 280 2.0 6.0 0.00 0.00 0.00 70 1019.6
20260506210024 73 280 3.0 6.0 0.00 0.00 0.00 69 1019.6
20260506205510 72 277 3.0 6.0 0.00 0.00 0.00 72 1019.6
20260506205006 72 277 3.0 6.0 0.00 0.00 0.00 72 1019.7
20260506204526 71 283 3.0 6.0 0.00 0.00 0.00 70 1019.7
20260506204016 72 281 4.0 6.0 0.00 0.00 0.00 70 1019.7
20260506203508 71 279 4.0 6.0 0.00 0.00 0.00 69 1019.8
20260506203032 72 278 4.0 6.0 0.00 0.00 0.00 67 1019.9
20260506202509 71 275 3.0 6.0 0.00 0.00 0.00 69 1020.0
20260506202010 72 279 3.0 6.0 0.00 0.00 0.00 68 1020.1
20260506201526 72 279 3.0 6.0 0.00 0.00 0.00 69 1020.1
20260506201011 72 283 3.0 6.0 0.00 0.00 0.00 70 1020.2
20260506200507 71 284 4.0 6.0 0.00 0.00 0.00 69 1020.2
20260506200041 73 280 4.0 7.0 0.00 0.00 0.00 68 1020.4
20260506195508 74 279 4.0 7.0 0.00 0.00 0.00 68 1020.4
20260506195007 74 277 4.0 6.0 0.00 0.00 0.00 69 1020.4
20260506194524 74 283 4.0 6.0 0.00 0.00 0.00 69 1020.5
20260506193506 74 281 4.0 6.0 0.00 0.00 0.00 70 1020.6
20260506193005 72 275 4.0 6.0 0.00 0.00 0.00 69 1020.6
20260506192507 72 279 4.0 7.0 0.00 0.00 0.00 67 1020.7
20260506192004 73 283 3.0 7.0 0.00 0.00 0.00 71 1020.7
20260506191510 73 263 3.0 7.0 0.00 0.00 0.00 70 1020.8
20260506191007 72 273 3.0 7.0 0.00 0.00 0.00 70 1020.8
20260506190508 72 275 3.0 7.0 0.00 0.00 0.00 69 1020.8
20260506190007 70 273 2.0 8.0 0.00 0.00 0.00 72 1020.8
20260506185507 69 289 5.0 8.0 0.00 0.00 0.00 72 1020.8
20260506185009 69 286 5.0 8.0 0.00 0.00 0.00 73 1020.9
20260506184505 68 290 6.0 8.0 0.00 0.00 0.00 73 1020.9
20260506184004 68 293 6.0 8.0 0.00 0.00 0.00 72 1020.9
20260506183504 68 286 6.0 8.0 0.00 0.00 0.00 73 1020.9
20260506183006 68 298 6.0 8.0 0.00 0.00 0.00 73 1021.0
20260506182504 68 298 4.0 7.0 0.00 0.00 0.00 73 1021.0
20260506182007 68 298 4.0 7.0 0.00 0.00 0.00 73 1021.0
20260506181507 66 303 4.0 7.0 0.00 0.00 0.00 73 1021.0
20260506181004 66 303 4.0 7.0 0.00 0.00 0.00 73 1021.0
20260506180504 66 301 4.0 7.0 0.00 0.00 0.00 75 1021.0
20260506180013 66 299 4.0 7.0 0.00 0.00 0.00 75 1021.0
20260506175508 65 297 4.0 7.0 0.00 0.00 0.00 76 1021.0
20260506175003 66 296 4.0 5.0 0.00 0.00 0.00 75 1021.0
20260506174514 65 290 4.0 6.0 0.00 0.00 0.00 77 1021.0
20260506174007 65 289 4.0 6.0 0.00 0.00 0.00 76 1021.0
20260506173508 65 282 3.0 6.0 0.00 0.00 0.00 77 1020.9
20260506173006 64 291 3.0 5.0 0.00 0.00 0.00 76 1021.0
20260506172503 64 290 3.0 5.0 0.00 0.00 0.00 75 1021.1
20260506172003 64 290 3.0 6.0 0.00 0.00 0.00 76 1021.1
20260506171513 64 288 3.0 7.0 0.00 0.00 0.00 76 1021.0
20260506171003 64 284 4.0 7.0 0.00 0.00 0.00 77 1021.0
20260506170504 63 281 4.0 7.0 0.00 0.00 0.00 79 1021.1
20260506170009 63 277 3.0 6.0 0.00 0.00 0.00 79 1021.0
20260506165510 63 278 3.0 6.0 0.00 0.00 0.00 81 1021.0
20260506165005 62 277 4.0 7.0 0.00 0.00 0.00 81 1021.0
20260506164516 62 275 3.0 7.0 0.00 0.00 0.00 81 1021.0
20260506164005 61 274 4.0 7.0 0.00 0.00 0.00 81 1021.0
20260506163503 61 273 3.0 7.0 0.00 0.00 0.00 81 1021.1
20260506163036 61 273 4.0 7.0 0.00 0.00 0.00 82 1021.1
20260506162507 61 267 3.0 7.0 0.00 0.00 0.00 83 1021.1
20260506162010 60 268 3.0 7.0 0.00 0.00 0.00 84 1021.1
20260506161515 60 267 4.0 7.0 0.00 0.00 0.00 84 1021.0
20260506161004 60 267 4.0 7.0 0.00 0.00 0.00 84 1021.1
20260506160506 60 265 3.0 7.0 0.00 0.00 0.00 84 1021.1
20260506160008 59 263 4.0 7.0 0.00 0.00 0.00 84 1021.1
20260506155503 59 264 4.0 7.0 0.00 0.00 0.00 85 1021.1
20260506155004 59 263 4.0 7.0 0.00 0.00 0.00 84 1021.1
20260506154525 59 258 4.0 7.0 0.00 0.00 0.00 85 1021.1
20260506154006 58 254 3.0 7.0 0.00 0.00 0.00 85 1021.1
20260506153508 58 252 3.0 7.0 0.00 0.00 0.00 86 1021.1
20260506153020 58 253 3.0 7.0 0.00 0.00 0.00 86 1021.0
20260506152505 58 252 3.0 5.0 0.00 0.00 0.00 86 1020.9
20260506152011 57 252 3.0 5.0 0.00 0.00 0.00 87 1021.0
20260506151521 57 251 3.0 7.0 0.00 0.00 0.00 87 1021.0
20260506151008 57 251 3.0 7.0 0.00 0.00 0.00 87 1021.0
20260506150508 57 273 3.0 7.0 0.00 0.00 0.00 87 1021.0
20260506150019 57 279 3.0 7.0 0.00 0.00 0.00 87 1020.9
20260506145505 57 279 4.0 7.0 0.00 0.00 0.00 87 1020.9
20260506145005 57 285 4.0 7.0 0.00 0.00 0.00 87 1020.9
20260506144518 57 285 4.0 7.0 0.00 0.00 0.00 87 1020.9
20260506144009 57 287 3.0 7.0 0.00 0.00 0.00 87 1020.9
20260506143509 57 289 4.0 7.0 0.00 0.00 0.00 87 1020.8
20260506143015 57 279 4.0 6.0 0.00 0.00 0.00 87 1020.7
20260506142508 57 277 3.0 7.0 0.00 0.00 0.00 87 1020.7
20260506142010 57 279 3.0 7.0 0.00 0.00 0.00 87 1020.7
20260506141514 57 279 4.0 7.0 0.00 0.00 0.00 87 1020.7
20260506141009 57 292 4.0 7.0 0.00 0.00 0.00 87 1020.6
20260506140508 57 291 4.0 7.0 0.00 0.00 0.00 87 1020.4
20260506140029 56 290 3.0 7.0 0.00 0.00 0.00 87 1020.4
20260506135503 57 287 5.0 7.0 0.00 0.00 0.00 87 1020.3
20260506135007 57 286 4.0 8.0 0.00 0.00 0.00 86 1020.3
20260506134524 57 284 5.0 8.0 0.00 0.00 0.00 87 1020.3
20260506134011 57 282 4.0 7.0 0.00 0.00 0.00 86 1020.3
20260506133508 57 280 4.0 7.0 0.00 0.00 0.00 86 1020.3
20260506133011 57 277 4.0 8.0 0.00 0.00 0.00 86 1020.2
20260506132510 57 272 5.0 8.0 0.00 0.00 0.00 86 1020.2
20260506132008 57 269 6.0 9.0 0.00 0.00 0.00 86 1020.2
20260506131520 57 277 7.0 10.0 0.00 0.00 0.00 86 1020.2
20260506131010 57 280 7.0 10.0 0.00 0.00 0.00 86 1020.1
20260506130512 56 284 7.0 10.0 0.00 0.00 0.00 86 1020.0
20260506130016 56 275 6.0 10.0 0.00 0.00 0.00 86 1020.0
20260506125508 57 279 7.0 10.0 0.00 0.00 0.00 86 1020.0
20260506125007 57 290 5.0 10.0 0.00 0.00 0.00 86 1020.0
20260506124515 57 288 5.0 10.0 0.00 0.00 0.00 86 1019.9
20260506124010 57 289 7.0 9.0 0.00 0.00 0.00 86 1020.0
20260506123513 57 292 6.0 10.0 0.00 0.00 0.00 85 1019.9
20260506123027 57 297 6.0 10.0 0.00 0.00 0.00 86 1020.0
20260506122509 57 271 5.0 10.0 0.00 0.00 0.00 85 1020.0
20260506122008 57 295 7.0 10.0 0.00 0.00 0.00 86 1019.9
20260506121511 57 298 7.0 9.0 0.00 0.00 0.00 85 1019.9
20260506121005 57 298 6.0 9.0 0.00 0.00 0.00 86 1020.0
20260506120506 57 290 5.0 9.0 0.00 0.00 0.00 85 1019.9
20260506120020 57 296 6.0 9.0 0.00 0.00 0.00 86 1019.8
20260506115505 57 271 5.0 9.0 0.00 0.00 0.00 86 1019.7
20260506115008 57 292 7.0 9.0 0.00 0.00 0.00 85 1019.7
20260506114525 57 281 4.0 8.0 0.00 0.00 0.00 85 1019.7
20260506114007 57 287 5.0 10.0 0.00 0.00 0.00 85 1019.7
20260506113509 57 282 4.0 10.0 0.00 0.00 0.00 85 1019.7
20260506113019 57 287 6.0 8.0 0.00 0.00 0.00 85 1019.6
20260506112512 57 298 4.0 8.0 0.00 0.00 0.00 85 1019.6
20260506112009 57 288 4.0 8.0 0.00 0.00 0.00 85 1019.5
20260506111525 57 287 4.0 8.0 0.00 0.00 0.00 85 1019.5
20260506111008 57 296 4.0 7.0 0.00 0.00 0.00 85 1019.4
20260506110508 57 270 3.0 7.0 0.00 0.00 0.00 85 1019.4
20260506110028 57 266 4.0 7.0 0.00 0.00 0.00 85 1019.4
20260506105507 57 278 4.0 7.0 0.00 0.00 0.00 85 1019.4
20260506105011 57 270 3.0 9.0 0.00 0.00 0.00 84 1019.4
20260506104519 57 265 4.0 9.0 0.00 0.00 0.00 84 1019.4
20260506104007 57 271 6.0 9.0 0.00 0.00 0.00 84 1019.4
20260506103508 57 277 5.0 9.0 0.00 0.00 0.00 84 1019.3
20260506103022 57 281 6.0 9.0 0.00 0.00 0.00 85 1019.3
20260506102509 57 284 6.0 9.0 0.00 0.00 0.00 85 1019.3
20260506102011 57 284 6.0 9.0 0.00 0.00 0.00 85 1019.3
20260506101526 57 281 7.0 10.0 0.00 0.00 0.00 85 1019.2
20260506101007 57 286 6.0 10.0 0.00 0.00 0.00 85 1019.1
20260506100507 57 275 5.0 8.0 0.00 0.00 0.00 84 1019.1
20260506100022 57 284 5.0 9.0 0.00 0.00 0.00 84 1019.2
20260506095509 57 281 7.0 9.0 0.00 0.00 0.00 84 1019.2
20260506095011 57 292 4.0 8.0 0.00 0.00 0.00 84 1019.2
20260506094518 57 263 4.0 8.0 0.00 0.00 0.00 84 1019.3
20260506094008 57 271 4.0 7.0 0.00 0.00 0.00 84 1019.3
20260506093508 57 268 3.0 7.0 0.00 0.00 0.00 84 1019.3
20260506093022 57 265 3.0 7.0 0.00 0.00 0.00 84 1019.3
20260506092507 57 262 4.0 7.0 0.00 0.00 0.00 84 1019.3
20260506092011 57 263 4.0 8.0 0.00 0.00 0.00 83 1019.3
20260506091524 57 265 3.0 8.0 0.00 0.00 0.00 83 1019.3
20260506091013 57 276 6.0 9.0 0.00 0.00 0.00 83 1019.3
20260506090508 57 272 4.0 9.0 0.00 0.00 0.00 83 1019.3
20260506090027 57 272 5.0 10.0 0.00 0.00 0.00 83 1019.3
20260506085507 57 265 8.0 10.0 0.00 0.01 0.00 83 1019.3
20260506085008 57 273 7.0 10.0 0.00 0.01 0.00 83 1019.3
20260506084534 57 282 7.0 10.0 0.00 0.01 0.00 83 1019.3
20260506084010 57 269 8.0 10.0 0.00 0.01 0.00 83 1019.3
20260506083512 57 270 8.0 10.0 0.00 0.02 0.00 83 1019.3
20260506083027 57 277 7.0 11.0 0.00 0.02 0.00 83 1019.3
20260506082507 57 265 8.0 11.0 0.00 0.02 0.00 83 1019.3
20260506082007 57 256 6.0 9.0 0.00 0.02 0.00 83 1019.3
20260506081522 57 270 7.0 10.0 0.00 0.02 0.00 83 1019.3
20260506081011 57 275 7.0 10.0 0.00 0.02 0.00 83 1019.2
20260506080507 57 253 6.0 9.0 0.00 0.02 0.00 83 1019.2
20260506073514 57 270 8.0 12.0 0.00 0.06 0.00 83 1019.1
20260506073014 57 270 9.0 12.0 0.00 0.06 0.00 83 1019.2
20260506072507 57 270 8.0 13.0 0.00 0.08 0.00 83 1019.1
20260506072009 57 268 8.0 13.0 0.00 0.09 0.00 83 1019.2
20260506071508 57 269 9.0 12.0 0.00 0.10 0.00 83 1019.0
20260506071007 57 265 8.0 13.0 0.00 0.10 0.00 83 1019.0
20260506070507 57 265 9.0 13.0 0.00 0.10 0.00 83 1018.9
20260506062509 57 269 9.0 12.0 0.00 0.11 0.11 83 1018.7
20260506062007 57 281 9.0 12.0 0.00 0.11 0.11 82 1018.6
20260506061514 58 267 9.0 11.0 0.00 0.12 0.11 83 1018.5
20260506061007 58 277 8.0 11.0 0.00 0.12 0.11 82 1018.5
20260506060505 58 269 8.0 11.0 0.00 0.12 0.11 82 1018.5
20260506051005 58 251 2.0 11.0 0.00 0.19 0.11 83 1018.2
20260506050506 58 252 6.0 11.0 0.00 0.20 0.11 83 1018.2
20260506045007 58 263 7.0 13.0 0.00 0.21 0.11 83 1018.0
20260506044523 58 272 8.0 11.0 0.00 0.21 0.11 83 1018.1
20260506044006 58 275 8.0 11.0 0.00 0.21 0.11 83 1017.9
20260506043503 58 264 4.0 10.0 0.00 0.22 0.11 83 1017.8
20260506043008 58 227 2.0 4.0 0.00 0.23 0.11 82 1017.7
20260506042504 58 226 0.0 3.0 0.00 0.24 0.11 82 1017.7
20260506042004 58 226 1.0 4.0 0.00 0.25 0.11 82 1017.7
20260506041508 58 226 2.0 5.0 0.00 0.25 0.11 82 1017.7
20260506041004 58 227 3.0 5.0 0.00 0.25 0.11 81 1017.6
20260506040503 58 226 0.0 5.0 0.00 0.26 0.11 81 1017.5
20260506040009 58 226 3.0 11.0 0.00 0.26 0.11 81 1017.5
20260506035509 59 229 3.0 11.0 0.00 0.27 0.11 81 1017.5
20260506035009 59 264 3.0 6.0 0.00 0.27 0.11 81 1017.5
20260506034510 59 208 3.0 6.0 0.00 0.28 0.11 81 1017.3
20260506034011 59 207 1.0 6.0 0.00 0.28 0.11 81 1017.1
20260506033511 59 205 2.0 6.0 0.00 0.28 0.11 81 1016.9
20260506033023 59 194 2.0 7.0 0.00 0.29 0.11 81 1017.0
20260506032503 59 237 2.0 7.0 0.00 0.29 0.11 81 1016.8
20260506032004 59 231 3.0 6.0 0.00 0.29 0.11 80 1016.8
20260506031508 59 229 2.0 5.0 0.00 0.29 0.11 80 1016.6
20260506031004 59 229 3.0 5.0 0.00 0.30 0.11 80 1016.6
20260506030503 59 228 2.0 6.0 0.00 0.30 0.11 79 1016.5
20260506030012 60 232 2.0 8.0 0.00 0.30 0.11 79 1016.5
20260506025507 60 197 2.0 8.0 0.00 0.30 0.11 79 1016.5
20260506025004 60 202 3.0 8.0 0.00 0.30 0.11 79 1016.4
20260506024518 60 220 4.0 8.0 0.00 0.30 0.11 78 1016.3
20260506024008 60 209 2.0 8.0 0.00 0.30 0.11 78 1016.2
20260506023505 60 229 4.0 8.0 0.00 0.30 0.11 77 1016.2
20260506023018 60 197 3.0 8.0 0.00 0.30 0.11 77 1016.2
20260506022508 60 205 3.0 9.0 0.00 0.30 0.11 76 1016.2
20260506022013 61 217 4.0 9.0 0.00 0.30 0.11 76 1016.2
20260506021510 61 208 3.0 9.0 0.00 0.30 0.11 75 1016.2
20260506021006 61 212 3.0 6.0 0.00 0.31 0.11 76 1016.1
20260506020511 61 203 2.0 8.0 0.00 0.31 0.11 76 1016.0
20260506020010 61 214 4.0 9.0 0.00 0.31 0.11 76 1016.0
20260506015506 61 192 3.0 9.0 0.00 0.31 0.11 75 1015.9
20260506015006 61 192 4.0 9.0 0.00 0.31 0.11 75 1015.9
20260506014513 61 166 4.0 8.0 0.00 0.31 0.11 75 1015.8
20260506014004 61 214 3.0 10.0 0.00 0.31 0.11 75 1015.7
20260506013507 61 194 3.0 11.0 0.00 0.31 0.11 75 1015.8
20260506013034 61 188 4.0 11.0 0.00 0.31 0.11 76 1015.8
20260506012507 62 210 4.0 10.0 0.00 0.31 0.11 76 1015.8
20260506012007 62 219 3.0 11.0 0.00 0.31 0.11 76 1015.8
20260506011525 62 239 4.0 11.0 0.00 0.31 0.11 76 1015.8
20260506011008 62 223 3.0 11.0 0.00 0.31 0.11 75 1015.8
20260506010509 62 180 5.0 11.0 0.00 0.31 0.11 75 1015.8
20260506010026 62 217 5.0 11.0 0.00 0.31 0.11 75 1015.8
20260506005507 62 200 6.0 11.0 0.00 0.31 0.11 75 1015.7
20260506005013 63 202 4.0 12.0 0.00 0.31 0.11 75 1015.7
20260506004525 63 209 5.0 12.0 0.00 0.31 0.11 75 1015.6
20260506004006 63 218 3.0 10.0 0.00 0.31 0.11 75 1015.6
20260506003509 63 196 6.0 11.0 0.00 0.31 0.11 75 1015.5
20260506003028 63 190 5.0 11.0 0.00 0.31 0.11 75 1015.5
20260506002508 63 215 5.0 12.0 0.00 0.31 0.11 74 1015.4
20260506002009 63 212 5.0 12.0 0.00 0.31 0.11 74 1015.4
20260506001518 63 195 4.0 10.0 0.00 0.31 0.11 75 1015.4
20260506001008 63 159 5.0 11.0 0.00 0.31 0.11 75 1015.4
20260506000509 63 200 4.0 11.0 0.00 0.31 0.11 75 1015.4
20260506000022 63 186 4.0 11.0 0.00 0.31 0.11 75 1015.4
20260505235509 63 168 4.0 11.0 0.00 0.31 0.11 76 1015.4
20260505235012 63 211 4.0 10.0 0.00 0.31 0.11 76 1015.4
20260505234524 63 202 4.0 14.0 0.00 0.31 0.11 77 1015.4
20260505234010 63 222 5.0 14.0 0.00 0.31 0.11 77 1015.4
20260505233509 63 208 4.0 12.0 0.00 0.31 0.11 76 1015.5
20260505233029 63 192 5.0 12.0 0.00 0.31 0.11 75 1015.5
20260505232511 63 119 6.0 12.0 0.00 0.31 0.11 75 1015.4
20260505232010 63 186 4.0 10.0 0.00 0.31 0.11 75 1015.5
20260505231529 64 162 5.0 10.0 0.00 0.31 0.11 75 1015.5
20260505231008 64 188 3.0 10.0 0.00 0.31 0.11 75 1015.5
20260505230509 65 205 6.0 10.0 0.00 0.31 0.11 74 1015.4
20260505230029 65 188 2.0 9.0 0.00 0.31 0.11 75 1015.5
20260505225509 65 204 4.0 9.0 0.00 0.31 0.11 74 1015.5
20260505225010 64 196 4.0 8.0 0.00 0.31 0.11 74 1015.5
20260505224526 64 214 5.0 9.0 0.00 0.31 0.11 73 1015.5
20260505224010 65 196 5.0 9.0 0.00 0.31 0.11 74 1015.5
20260505223509 65 186 3.0 10.0 0.00 0.31 0.11 73 1015.6
20260505223007 65 186 4.0 10.0 0.00 0.31 0.11 73 1015.5
20260505222508 65 237 3.0 9.0 0.00 0.31 0.11 74 1015.6
20260505222008 65 192 3.0 9.0 0.00 0.31 0.11 72 1015.6